Regional Weather Roundup
Issued by NWS

Home | Current Version | Previous Version | Graphics & Text | Print | Product List | Glossary On
Versions: 1 2 3 4 5 6 7 8 9 10 11 12 13 14 15 16 17 18 19 20 21 22 23 24 25 26 27 28 29 30 31 32 33 34 35 36 37 38 39 40 41 42 43 44 45 46 47 48 49 50
000
ASUS45 KPSR 222310
RWRAZ

ARIZONA REGIONAL HOURLY WEATHER ROUNDUP
NATIONAL WEATHER SERVICE PHOENIX AZ
400 PM MST SAT NOV 22 2014

NOTE: FAIR INDICATES FEW OR NO CLOUDS BELOW 12,000 FEET WITH NO
SIGNIFICANT WEATHER AND/OR OBSTRUCTIONS TO VISIBILITY.

AZZ001>003-036-230000-
NORTHWEST ARIZONA

CITY           SKY/WX    TMP DP  RH WIND       PRES   REMARKS
BULLHEAD CITY  SUNNY     73  30  20 SW8       29.90F
KINGMAN        SUNNY     64  21  19 SW21      29.98F
$$

AZZ004>008-015-016-018-230000-
NORTH CENTRAL ARIZONA

CITY           SKY/WX    TMP DP  RH WIND       PRES   REMARKS
GRAND CANYON   MOSUNNY   54  14  20 W15G24    30.01F
PRESCOTT       SUNNY     58  16  19 W17G25    30.05R
FLAGSTAFF      SUNNY     51  15  23 SW21G26   30.06R
PAYSON         SUNNY     57  19  23 VRB7G13   30.05R
$$

AZZ009>014-017-230000-
NORTHEAST ARIZONA

CITY           SKY/WX    TMP DP  RH WIND       PRES   REMARKS
WINSLOW        SUNNY     62  15  16 W16G23    29.97R
SAINT JOHNS    MOSUNNY   59  16  18 SW15      29.95F
SHOW LOW       MOSUNNY   52  14  22 SW17G23   30.04F
$$

AZZ023-230000-
GREATER PHOENIX AREA

CITY           SKY/WX    TMP DP  RH WIND       PRES   REMARKS
PHOENIX        PTSUNNY   71  30  21 VRB3      29.95F
BUCKEYE          N/A     70  28  21 CALM      29.97F
GLENDALE       MOSUNNY   70  32  24 S5        29.98F
LUKE AFB       PTSUNNY   70  32  24 SW7       29.96S
DEER VALLEY    MOSUNNY   67  27  22 SW5       29.96F
SCOTTSDALE     PTSUNNY   68  30  24 S3        29.99S
MESA-FALCON    PTSUNNY   68  30  24 S7        29.96F
MESA-GATEWAY   MOSUNNY   68  28  22 SW5       29.99F
CHANDLER       PTSUNNY   70  30  23 SW7       29.97F
$$

AZZ027-028-230000-
SOUTHWEST MARICOPA COUNTY AND PINAL COUNTY

CITY           SKY/WX    TMP DP  RH WIND       PRES   REMARKS
CASA GRANDE    PTSUNNY   70  27  19 CALM      29.97F
$$

AZZ503-504-507>509-230000-
SOUTHEAST ARIZONA

CITY           SKY/WX    TMP DP  RH WIND       PRES   REMARKS
TUCSON         SUNNY     70  21  15 NW8       30.01F
DAVIS-MONTHAN  SUNNY     69  29  22 VRB3      29.99F
RYAN FIELD       N/A    N/A N/A N/A CALM      30.00F
NOGALES        SUNNY     68  25  19 VRB5      30.04S
SIERRA VISTA   SUNNY     64  20  18 W10       30.04S
DOUGLAS        SUNNY     66  24  20 NW7       30.02F
SAFFORD        MOSUNNY   65  21  18 W7        29.95F
$$

AZZ020-021-025-026-031-230000-
SOUTHWEST ARIZONA

CITY           SKY/WX    TMP DP  RH WIND       PRES   REMARKS
YUMA           PTSUNNY   78  32  18 S7        29.94F
$$

CAZ031-033-041-043-047-048-061-230000-
SOUTHERN CALIFORNIA

CITY           SKY/WX    TMP DP  RH WIND       PRES   REMARKS
DOWNTOWN L.A.  SUNNY     69  54  58 VRB6      30.01F
L.A. AIRPORT   PTSUNNY   66  54  65 W10       30.03F
SAN DIEGO      PTSUNNY   68  54  60 SW9       30.05F
BURBANK        SUNNY     70  46  42 S6        30.00F
ONTARIO        PTSUNNY   71  46  40 SW6       30.02F
RIVERSIDE      SUNNY     72  44  36 W6        30.02F
PALM SPRINGS   SUNNY     77  34  21 E9        29.93F
EL CENTRO NAS  MOSUNNY   81  32  17 S9        29.91F
IMPERIAL       MOSUNNY   80  37  21 S9        29.91F
BLYTHE         MOSUNNY   76  35  22 S9        29.92F
NEEDLES        SUNNY     76  27  16 S14       29.90F
$$

NVZ020-UTZ003-230000-
SOUTHERN NEVADA-UTAH

CITY           SKY/WX    TMP DP  RH WIND       PRES   REMARKS
LAS VEGAS      MOSUNNY   71  27  19 S14G22    29.82F
SALT LAKE CITY RAIN      40  38  93 N17       29.80R FOG     WCI  31
$$

NMZ009-TXZ055-230000-
NEW MEXICO-WEST TEXAS

CITY           SKY/WX    TMP DP  RH WIND       PRES   REMARKS
ALBUQUERQUE    MOCLDY    57  18  21 S6        29.90F
EL PASO        MOSUNNY   66  29  24 W17G25    29.92F
$$


........................KEY........................
SKY/WX - SKY CONDITION/WEATHER
TMP    - TEMPERATURE IN FAHRENHEIT
DP     - DEW POINT IN FAHRENHEIT
RH     - RELATIVE HUMIDITY IN PERCENT
WIND   - DIRECTION AND SPEED IN MILES PER HOUR (MPH)
VRB    - VARIABLE WIND DIRECTION
PRES   - MEAN SEA LEVEL PRESSURE IN INCHES OF MERCURY
         F - FALLING PRESSURE   R - RISING PRESSURE
         S - STEADY PRESSURE
VSB    - VISIBILITY IN MILES
HX     - HEAT INDEX IN FAHRENHEIT
WCI    - WIND CHILL INDEX IN FAHRENHEIT
TC     - TEMPERATURE IN CELSIUS WHICH IS ALSO KNOWN AS
         TEMPERATURE IN CENTIGRADE
AFB    - AIR FORCE BASE
         LUKE AFB IS LUKE AIR FORCE BASE
         DAVIS-MONTHAN IS DAVIS-MONTHAN AIR FORCE BASE
NAS    - NAVAL AIR STATION
         EL CENTRO NAS IS EL CENTRO NAVAL AIR STATION
N/A    - NOT AVAILABLE


USA.gov is the U.S. government's official web portal to all federal, state and local government web resources and services.